Weather History for Olive Branch, MS

Change the Weather History Date:

Wednesday, November 13, 2013

  Actual Average (KMEM) Record (KMEM)
Temperature  
Mean Temperature 28 °F 54 °F  
Max Temperature 33 °F 64 °F 85 °F (1955)
Min Temperature 24 °F 45 °F 20 °F (1986)
Degree Days  
Heating Degree Days 36 11  
Month to date heating degree days 121  
Since 1 July heating degree days 252  
Cooling Degree Days 0 0  
Month to date cooling degree days 11  
Year to date cooling degree days 2254  
Moisture  
Dew Point 26 °F    
Average Humidity 85    
Maximum Humidity 93    
Minimum Humidity 75    
Precipitation  
Precipitation 0.00 in 0.18 in 1.65 in (1957)
Month to date precipitation 2.10  
Year to date precipitation 44.55  
Snow  
Snow 0.00 in 0.00 in 0.10 in (1969)
Month to date snowfall 0.0  
Since 1 July snowfall 0.0  
Since 1 September snowfall 0.0  
Snow Depth -    
Sea Level Pressure  
Sea Level Pressure 30.58 in    
Wind  
Wind Speed 6 mph (NNE)    
Max Wind Speed 10 mph    
Max Gust Speed -    
Visibility 10 miles    
Events      
T = Trace of Precipitation, MM = Missing Value Source: NWS Daily Summary

Daily Weather History Graph

Daily Weather History Graph

Search for Another Location

Airport:

Trip Planner

Search our weather history database for the weather conditions in past years. The results will help you decide how hot, cold, wet, or windy it might be!

Date:

Astronomy

Nov. 13, 2013 Rise Set
Actual Time 6:31 AM CST 4:54 PM CST
Civil Twilight 6:05 AM CST 5:21 PM CST
Nautical Twilight 5:34 AM CST 5:51 PM CST
Astronomical Twilight 5:04 AM CST 6:21 PM CST
Moon 2:34 PM CST (11/13) 2:33 AM CST (11/13)
Length of Visible Light 11h 16m
Length of Day
10h 22m
Waxing Gibbous, 85% of the Moon is Illuminated
Nov 13
Waxing Gibbous
Nov 17
Full
Nov 25
Last Quarter
Dec 2
New
Dec 9
First Quarter

Hourly Weather History & Observations

Time (CST) Temp. Windchill Dew Point Humidity Pressure Visibility Wind Dir Wind Speed Gust Speed Precip Events Conditions
12:15 AM 30.2 °F 21.9 °F 23.0 °F 75% 30.66 in 9.0 mi North 9.2 mph - 0.00 in   Mostly Cloudy
12:35 AM 30.2 °F 21.3 °F 23.0 °F 75% 30.65 in 8.0 mi North 10.4 mph - 0.00 in   Mostly Cloudy
12:55 AM 30.2 °F 21.9 °F 24.8 °F 80% 30.66 in 9.0 mi NNE 9.2 mph - 0.00 in   Mostly Cloudy
1:15 AM 30.2 °F 21.9 °F 23.0 °F 75% 30.66 in 10.0 mi North 9.2 mph - 0.00 in   Mostly Cloudy
1:35 AM 28.4 °F 21.2 °F 23.0 °F 80% 30.66 in 10.0 mi North 6.9 mph - 0.00 in   Mostly Cloudy
1:55 AM 28.4 °F 21.2 °F 24.8 °F 86% 30.66 in 9.0 mi NNE 6.9 mph - 0.00 in   Scattered Clouds
2:15 AM 28.4 °F 21.2 °F 24.8 °F 86% 30.66 in 10.0 mi NNE 6.9 mph - 0.00 in   Mostly Cloudy
2:35 AM 28.4 °F 21.2 °F 23.0 °F 80% 30.66 in 10.0 mi NNE 6.9 mph - 0.00 in   Mostly Cloudy
2:55 AM 28.4 °F 20.4 °F 23.0 °F 80% 30.66 in 10.0 mi NNE 8.1 mph - 0.00 in   Mostly Cloudy
3:15 AM 28.4 °F 23.3 °F 23.0 °F 80% 30.66 in 10.0 mi NNE 4.6 mph - 0.00 in   Mostly Cloudy
3:35 AM 26.6 °F 20.0 °F 23.0 °F 86% 30.66 in 10.0 mi North 5.8 mph - 0.00 in   Overcast
3:55 AM 26.6 °F 20.0 °F 24.8 °F 93% 30.66 in 9.0 mi NNE 5.8 mph - 0.00 in   Mostly Cloudy
4:15 AM 26.6 °F 21.2 °F 24.8 °F 93% 30.67 in 10.0 mi NNE 4.6 mph - 0.00 in   Mostly Cloudy
4:35 AM 26.6 °F - 23.0 °F 86% 30.67 in 10.0 mi Calm Calm - 0.00 in   Mostly Cloudy
4:55 AM 26.6 °F 20.0 °F 23.0 °F 86% 30.67 in 9.0 mi NNE 5.8 mph - 0.00 in   Mostly Cloudy
5:15 AM 24.8 °F 16.9 °F 23.0 °F 93% 30.68 in 9.0 mi North 6.9 mph - 0.00 in   Mostly Cloudy
5:35 AM 26.6 °F 20.0 °F 24.8 °F 93% 30.69 in 10.0 mi NNE 5.8 mph - 0.00 in   Mostly Cloudy
6:50 AM - - - N/A% 30.70 in 10.0 mi North 5.8 mph - N/A   Clear
7:50 AM - - - N/A% 30.71 in 10.0 mi NE 10.4 mph - N/A   Clear
8:50 AM - - - N/A% 30.68 in 10.0 mi East 5.8 mph - N/A   Clear
9:50 AM - - - N/A% 30.68 in 10.0 mi NE 6.9 mph - N/A   Clear
10:50 AM - - - N/A% 30.64 in 10.0 mi NE 5.8 mph - N/A   Clear
11:50 AM - - - N/A% 30.61 in 10.0 mi Calm Calm - N/A   Clear
12:50 PM - - - N/A% 30.58 in 10.0 mi Calm Calm - N/A   Clear
1:50 PM - - - N/A% 30.55 in 10.0 mi NNE 4.6 mph - N/A   Clear
2:50 PM - - - N/A% 30.53 in 10.0 mi Calm Calm - N/A   Clear
3:50 PM - - - N/A% 30.52 in 10.0 mi Calm Calm - N/A   Clear
5:50 PM - - - N/A% 30.50 in 10.0 mi Calm Calm - N/A   Clear
7:50 PM - - - N/A% 30.48 in 10.0 mi Calm Calm - N/A   Clear
7:55 PM 33.8 °F - 26.6 °F 75% 30.48 in 10.0 mi Calm Calm - 0.00 in   Overcast
8:15 PM 33.8 °F - 28.4 °F 81% 30.48 in 10.0 mi Calm Calm - 0.00 in   Scattered Clouds
8:35 PM 32.0 °F - 28.4 °F 87% 30.48 in 10.0 mi Calm Calm - 0.00 in   Mostly Cloudy
8:55 PM 33.8 °F - 28.4 °F 81% 30.48 in 10.0 mi Calm Calm - 0.00 in   Mostly Cloudy
9:15 PM 32.0 °F - 28.4 °F 87% 30.48 in 10.0 mi Calm Calm - 0.00 in   Mostly Cloudy
9:35 PM 32.0 °F - 28.4 °F 87% 30.47 in 10.0 mi Calm Calm - 0.00 in   Overcast
9:55 PM 32.0 °F - 28.4 °F 87% 30.47 in 9.0 mi Calm Calm - 0.00 in   Mostly Cloudy
10:15 PM 30.2 °F - 28.4 °F 93% 30.46 in 10.0 mi Calm Calm - 0.00 in   Overcast
10:35 PM 32.0 °F - 28.4 °F 87% 30.46 in 10.0 mi Calm Calm - 0.00 in   Mostly Cloudy
10:55 PM 30.2 °F 26.7 °F 28.4 °F 93% 30.46 in 10.0 mi SSW 3.5 mph - 0.00 in   Mostly Cloudy
11:15 PM 30.2 °F - 28.4 °F 93% 30.46 in 9.0 mi Calm Calm - 0.00 in   Overcast
11:35 PM 30.2 °F 26.7 °F 26.6 °F 86% 30.46 in 10.0 mi SSW 3.5 mph - 0.00 in   Overcast
11:55 PM 30.2 °F - 28.4 °F 93% 30.45 in 8.0 mi Calm Calm - 0.00 in   Mostly Cloudy